Location: Unspecified
(44.0704°N, 88.6889°W)
Time: 11:32:03
(UTC+02:00)

Vanguard 2 Rocket - Pass Details

Date: 07 August 2020
Orbit: 554 x 3326 km, 32.9° (Epoch: 22 September)

Event Time Altitude Azimuth Distance (km) Brightness Sun altitude
Rises 06:57:32 0° 270° (W) 5,288 11.0 -27.9°
Reaches altitude 10° 07:00:46 10° 264° (W) 4,624 10.6 -28.1°
Maximum altitude 07:13:29 42° 200° (SSW) 3,664 9.5 -28.7°
Enters shadow 07:16:30 40° 180° (S) 3,905 9.5 -28.8°
